Location: Erba
(45.8000°N, 9.2500°E)
Time: 08:31:14
(UTC+02:00)

ISS - Visible Passes

Search period start: 22 October 2017 00:00
Search period end: 31 October 2017 23:00
Orbit: 401 x 408 km, 51.6° (Epoch: 22 October)

Date Brightness Start Highest point End Pass type
(mag) Time Alt. Az. Time Alt. Az. Time Alt. Az.
28 Oct -0.6 07:04:14 10° SSE 07:05:32 12° SE 07:06:50 10° ESE visible
30 Oct -1.6 05:54:06 10° SSW 05:56:49 25° SE 05:59:33 10° E visible
31 Oct -0.9 05:02:42 10° S 05:04:34 14° SE 05:06:27 10° E visible
